Location: Newark
(32.9900°N, 111.5400°W)
Time: 17:10:36
(UTC+00:00)

Envisat - Pass Details

Date: 18 November 2019
Orbit: 764 x 766 km, 98.1° (Epoch: 11 December)

Event Time Altitude Azimuth Distance (km) Brightness Sun altitude
Rises 01:07:21 0° 153° (SSE) 3,218 6.1 -9.5°
Reaches altitude 10° 01:09:42 10° 148° (SSE) 2,295 5.3 -10.0°
Maximum altitude 01:14:34 50° 74° (ENE) 967 3.1 -11.0°
Drops below altitude 10° 01:19:28 10° 360° (N) 2,307 5.3 -11.9°
Sets 01:21:50 0° 355° (N) 3,236 6.1 -12.4°
